CST,Max TemperatureF,Mean TemperatureF,Min TemperatureF,Max Dew PointF,MeanDew PointF,Min DewpointF,Max Humidity, Mean Humidity, Min Humidity, Max Sea Level PressureIn, Mean Sea Level PressureIn, Min Sea Level PressureIn, Max VisibilityMiles, Mean VisibilityMiles, Min VisibilityMiles, Max Wind SpeedMPH, Mean Wind SpeedMPH, Max Gust SpeedMPH,PrecipitationIn, CloudCover, Events, WindDirDegrees
2013-11-1,42,40,37,42,38,36,97,93,85,29.73,29.48,29.22,10,8,2,12,7,18,0.00,8,Rain,330
2013-11-2,39,36,32,35,34,32,100,94,74,30.12,29.95,29.73,10,10,3,7,1,,0.01,8,Rain-Snow,25
2013-11-3,42,36,29,34,32,29,100,84,64,30.23,30.17,30.12,10,10,10,16,4,25,0.00,6,,160
2013-11-4,47,44,40,42,37,34,96,81,65,30.13,30.01,29.89,10,9,3,16,11,32,0.02,7,Rain,182
2013-11-5,46,36,27,35,31,26,100,79,45,30.21,30.12,29.96,10,9,2,9,4,16,0.07,4,Rain-Snow,251
2013-11-6,33,30,28,33,29,25,99,91,81,30.04,29.92,29.84,10,7,1,13,7,21,0.07,8,Snow,323
2013-11-7,31,29,27,28,26,24,92,87,80,30.11,30.07,30.03,10,9,2,8,5,16,0.00,8,Snow,268
2013-11-8,34,24,15,32,25,14,97,89,77,30.16,30.03,29.71,10,8,0,12,4,21,0.01,6,Fog-Snow,171
2013-11-9,35,34,33,36,33,31,100,93,84,29.91,29.70,29.58,10,6,1,15,8,25,0.40,8,Snow,254
2013-11-10,36,34,32,32,29,25,98,83,63,30.20,30.09,29.92,10,8,2,14,8,22,0.01,6,Snow,267
2013-11-11,32,26,20,32,17,12,96,79,63,30.50,30.25,29.99,10,6,1,20,10,29,0.00,8,Snow,328
2013-11-12,26,21,16,15,9,2,85,63,36,30.58,30.49,30.35,10,9,3,10,7,18,0.00,3,Snow,280
2013-11-13,46,32,17,30,21,8,76,63,47,30.33,29.99,29.79,10,10,10,16,8,26,0.00,0,,227
2013-11-14,39,36,32,31,29,28,90,79,69,29.81,29.77,29.73,10,10,10,7,4,,0.00,4,,221
2013-11-15,48,38,27,36,33,26,100,85,59,29.82,29.79,29.76,10,7,0,9,2,16,0.00,2,Fog,201
2013-11-16,51,44,38,50,38,32,100,89,77,29.77,29.54,29.31,10,8,1,17,6,23,0.39,7,Rain,167
2013-11-17,51,42,33,50,39,28,99,91,79,29.45,29.31,29.19,10,9,3,24,7,37,0.04,5,Rain,251
2013-11-18,32,28,25,28,20,16,86,73,66,30.16,29.85,29.46,10,8,1,24,14,36,0.00,8,Snow,302
2013-11-19,35,24,12,23,17,9,93,68,46,30.26,30.18,30.08,10,10,10,15,5,22,0.00,3,,169
2013-11-20,37,34,31,32,26,22,99,74,55,30.08,30.06,30.04,10,7,0,15,10,24,0.00,8,Snow,173
2013-11-21,33,29,24,34,30,22,100,96,87,30.33,30.15,30.05,10,3,0,15,4,22,0.07,8,Fog-Snow,309
2013-11-22,29,22,14,22,16,9,91,76,53,30.41,30.34,30.28,10,8,1,14,9,28,0.00,6,Snow,305
2013-11-23,14,10,7,11,4,1,87,78,64,30.56,30.51,30.34,10,4,1,20,10,29,0.00,8,Snow,319
2013-11-24,22,10,-1,12,4,-5,87,69,57,30.52,30.27,29.87,10,10,2,15,6,24,0.00,5,Snow,220
2013-11-25,32,27,22,27,22,13,86,75,65,29.87,29.80,29.74,10,9,2,15,10,26,0.00,8,Snow,251
2013-11-26,27,19,11,24,10,2,86,77,53,30.14,30.01,29.86,10,6,1,16,8,24,0.00,7,Snow,312
2013-11-27,22,18,13,15,12,7,91,80,51,30.20,30.14,30.09,10,7,1,12,5,17,0.00,6,Snow,350
2013-11-28,23,10,-4,15,10,-8,94,85,69,30.39,30.19,30.07,10,6,0,7,1,,0.00,6,Snow,286
2013-11-29,23,10,-4,19,14,-8,94,84,74,30.49,30.38,30.20,10,10,7,13,3,18,0.00,7,,185
2013-11-30,32,28,24,25,22,17,86,77,69,30.19,30.04,29.96,10,10,7,9,4,,0.03,7,,214